This is the latest recevied weather packets stored in our database for station/object EA1JAO-11. If no packets are shown the sender has not sent any weather packets the latest 10 day(s).
| Time | Temp. | Humidity | Pressure | Rain* | Wind** | Luminosity | Snow |
|---|---|---|---|---|---|---|---|
| 1777772186 | 13.89° C | 98% | 1012.8 hPa | - | - | - | - |
| 1777770382 | 13.89° C | 98% | 1012.9 hPa | - | - | - | - |
| 1777768586 | 13.89° C | 98% | 1013.1 hPa | - | - | - | - |
| 1777766786 | 13.89° C | 97% | 1013.3 hPa | - | - | - | - |
| 1777764986 | 13.89° C | 98% | 1013.5 hPa | - | - | - | - |
| 1777763186 | 13.89° C | 98% | 1013.6 hPa | - | - | - | - |
| 1777761386 | 13.89° C | 97% | 1013.6 hPa | - | - | - | - |
| 1777759586 | 13.89° C | 97% | 1013.9 hPa | - | - | - | - |
| 1777757786 | 14.44° C | 96% | 1013.8 hPa | - | - | - | - |
| 1777755986 | 14.44° C | 95% | 1013.8 hPa | - | - | - | - |
| 1777754186 | 14.44° C | 95% | 1013.6 hPa | - | - | - | - |
| 1777752386 | 14.44° C | 94% | 1013.4 hPa | - | - | - | - |
| 1777750586 | 14.44° C | 93% | 1013.4 hPa | - | - | - | - |
| 1777748781 | 15° C | 91% | 1013.2 hPa | - | - | - | - |
| 1777746986 | 15.56° C | 83% | 1013.2 hPa | - | - | - | - |
| 1777745185 | 17.22° C | 72% | 1013 hPa | - | - | - | - |
| 1777743384 | 18.33° C | 67% | 1013 hPa | - | - | - | - |
| 1777741586 | 18.33° C | 67% | 1013.2 hPa | - | - | - | - |
| 1777739784 | 19.44° C | 64% | 1013 hPa | - | - | - | - |
| 1777737984 | 20.56° C | 59% | 1012.8 hPa | - | - | - | - |
| 1777736184 | 18.89° C | 63% | 1013.2 hPa | - | - | - | - |
| 1777734384 | 18.89° C | 62% | 1013.2 hPa | - | - | - | - |
| 1777732584 | 22.22° C | 54% | 1013.2 hPa | - | - | - | - |
| 1777730784 | 21.67° C | 53% | 1013.5 hPa | - | - | - | - |
| 1777728984 | 23.33° C | 46% | 1013.6 hPa | - | - | - | - |
* Rain since midnight (hover to see other rain measurements)
** Current wind speed in m/s (hover to see current wind gust speed)